Location: Beau Repaire
(50.6144°N, 4.0551°E)
Time: 20:48:13
(UTC+00:00)

Cosmos 2278 - Pass Details

Date: 15 May 2026
Orbit: 837 x 852 km, 71.1° (Epoch: 7 June)

Event Time Altitude Azimuth Distance (km) Brightness Sun altitude
Rises 20:59:50 0° 329° (NNW) 3,431 8.9 -11.9°
Reaches altitude 10° 21:02:19 10° 327° (NNW) 2,492 7.7 -12.2°
Maximum altitude 21:08:00 69° 245° (WSW) 914 3.9 -12.7°
Enters shadow 21:12:32 16° 165° (SSE) 2,063 5.2 -13.2°
